| time (UTC) | temp C | wind direction | speed KPH | gust KPH | rain 1hr cm | rain 24hr cm | rain mn cm | humidity % | barometer mb |
| 20260506103036 | 5 | 360 | 4.8 | 12.9 | 0.00 | 0.00 | 0.00 | 79 | 1010.0 |
| 20260506101524 | 5 | 350 | 4.8 | 17.7 | 0.00 | 0.00 | 0.00 | 79 | 1009.8 |
| 20260506100025 | 5 | 304 | 3.2 | 14.5 | 0.00 | 0.00 | 0.00 | 78 | 1009.7 |
| 20260506094521 | 5 | 342 | 4.8 | 19.3 | 0.00 | 0.00 | 0.00 | 75 | 1009.7 |
| 20260506093015 | 6 | 355 | 4.8 | 14.5 | 0.00 | 0.00 | 0.00 | 74 | 1009.6 |
| 20260506091513 | 6 | 350 | 4.8 | 12.9 | 0.00 | 0.00 | 0.00 | 74 | 1009.8 |
| 20260506090011 | 6 | 38 | 3.2 | 8.0 | 0.00 | 0.00 | 0.00 | 74 | 1009.6 |
| 20260506084509 | 6 | 350 | 0.0 | 0.0 | 0.00 | 0.00 | 0.00 | 76 | 1010.0 |
| 20260506083009 | 6 | 15 | 4.8 | 8.0 | 0.00 | 0.00 | 0.00 | 76 | 1009.9 |
| 20260506081506 | 6 | 360 | 0.0 | 8.0 | 0.00 | 0.00 | 0.00 | 76 | 1010.2 |
| 20260506073005 | 6 | 355 | 1.6 | 9.7 | 0.00 | 0.00 | 0.00 | 78 | 1009.9 |
| 20260506071505 | 6 | 35 | 3.2 | 8.0 | 0.00 | 0.00 | 0.00 | 78 | 1009.5 |
| 20260506061556 | 6 | 38 | 0.0 | 8.0 | 0.00 | 0.00 | 0.00 | 79 | 1009.6 |
| 20260506060119 | 6 | 5 | 1.6 | 4.8 | 0.00 | 0.00 | 0.00 | 79 | 1009.7 |
| 20260506044558 | 6 | 26 | 0.0 | 0.0 | 0.00 | 0.00 | 0.00 | 81 | 1010.1 |
| 20260506043047 | 6 | 26 | 0.0 | 0.0 | 0.00 | 0.00 | 0.00 | 81 | 1009.9 |
| 20260506041549 | 6 | 26 | 0.0 | 0.0 | 0.00 | 0.00 | 0.00 | 80 | 1009.9 |
| 20260506040044 | 6 | 26 | 0.0 | 0.0 | 0.00 | 0.00 | 0.00 | 78 | 1009.8 |
| 20260506034542 | 6 | 26 | 0.0 | 0.0 | 0.00 | 0.00 | 0.00 | 77 | 1009.9 |
| 20260506033040 | 6 | 26 | 0.0 | 0.0 | 0.00 | 0.00 | 0.00 | 76 | 1009.9 |
| 20260506031541 | 7 | 26 | 0.0 | 0.0 | 0.00 | 0.00 | 0.00 | 76 | 1010.0 |
| 20260506030039 | 7 | 26 | 0.0 | 0.0 | 0.00 | 0.00 | 0.00 | 76 | 1009.8 |
| 20260506024545 | 7 | 20 | 0.0 | 6.4 | 0.00 | 0.00 | 0.00 | 75 | 1009.7 |
| 20260506023032 | 7 | 28 | 0.0 | 0.0 | 0.00 | 0.00 | 0.00 | 73 | 1009.7 |
| 20260506021531 | 7 | 355 | 0.0 | 0.0 | 0.00 | 0.00 | 0.00 | 71 | 1009.6 |
| 20260506020031 | 7 | 349 | 0.0 | 0.0 | 0.00 | 0.00 | 0.00 | 72 | 1009.8 |
| 20260506014535 | 7 | 348 | 0.0 | 0.0 | 0.00 | 0.00 | 0.00 | 72 | 1009.8 |
| 20260506013028 | 7 | 348 | 0.0 | 0.0 | 0.00 | 0.00 | 0.00 | 72 | 1009.4 |
| 20260505224524 | 10 | 187 | 3.2 | 12.9 | 0.00 | 0.00 | 0.00 | 58 | 1008.7 |
| 20260505221526 | 10 | 225 | 4.8 | 8.0 | 0.00 | 0.00 | 0.00 | 57 | 1008.8 |
| 20260505211628 | 11 | 231 | 3.2 | 11.3 | 0.00 | 0.00 | 0.00 | 56 | 1008.7 |
| 20260505210130 | 10 | 219 | 4.8 | 16.1 | 0.00 | 0.00 | 0.00 | 56 | 1008.5 |
| 20260505194634 | 10 | 195 | 8.0 | 14.5 | 0.00 | 0.00 | 0.00 | 53 | 1008.3 |
| 20260505193134 | 10 | 262 | 4.8 | 11.3 | 0.00 | 0.00 | 0.00 | 54 | 1008.3 |
| 20260505183137 | 9 | 294 | 0.0 | 4.8 | 0.00 | 0.00 | 0.00 | 55 | 1008.1 |
| 20260505174640 | 8 | 313 | 4.8 | 8.0 | 0.00 | 0.00 | 0.00 | 58 | 1007.6 |
| 20260505173045 | 8 | 309 | 3.2 | 12.9 | 0.00 | 0.00 | 0.00 | 58 | 1007.4 |
| 20260505171643 | 8 | 277 | 3.2 | 12.9 | 0.00 | 0.00 | 0.00 | 58 | 1007.5 |
| 20260505164645 | 8 | 262 | 4.8 | 16.1 | 0.00 | 0.00 | 0.00 | 56 | 1007.4 |
| 20260505163145 | 9 | 276 | 3.2 | 17.7 | 0.00 | 0.00 | 0.00 | 57 | 1007.3 |
| 20260505153048 | 9 | 280 | 4.8 | 11.3 | 0.00 | 0.00 | 0.00 | 58 | 1006.9 |
| 20260505151549 | 9 | 307 | 1.6 | 12.9 | 0.00 | 0.00 | 0.00 | 62 | 1006.9 |
| 20260505120152 | 7 | 319 | 4.8 | 9.7 | 0.00 | 0.00 | 0.00 | 76 | 1004.0 |
| 20260505113152 | 6 | 316 | 1.6 | 8.0 | 0.00 | 0.00 | 0.00 | 79 | 1003.5 |
| 20260505111654 | 6 | 318 | 4.8 | 12.9 | 0.00 | 0.00 | 0.00 | 79 | 1002.9 |